Location: Arcadia
(34.1397°N, 118.0353°W)
Time: 09:27:49
(UTC+00:00)

CBERS-1 - Visible Passes

Search period start: 10 December 2024 00:00
Search period end: 20 December 2024 00:00
Orbit: 766 x 773 km, 98.8° (Epoch: 09 December)

Date Brightness Start Highest point End Pass type
(mag) Time Alt. Az. Time Alt. Az. Time Alt. Az.
10 Dec 5.0 12:20:18 10° NNE 12:25:11 45° E 12:30:02 10° S visible
10 Dec 5.3 14:00:28 10° NNW 14:03:49 18° WNW 14:07:10 10° WSW visible
11 Dec 6.9 01:12:23 10° SW 01:15:40 17° W 01:18:59 10° NW visible
11 Dec 6.4 11:45:58 10° NE 11:49:36 20° E 11:53:13 10° SE visible
11 Dec 4.4 13:24:00 10° N 13:28:43 39° WNW 13:33:25 10° SW visible
12 Dec 3.9 12:48:19 10° NNE 12:53:26 89° ESE 12:58:31 10° SSW visible
13 Dec 5.3 12:13:16 10° NNE 12:17:59 38° E 12:22:39 10° SSE visible
13 Dec 5.1 13:52:57 10° NNW 13:56:43 21° WNW 14:00:28 10° WSW visible
14 Dec 6.8 01:04:40 10° SW 01:08:26 21° W 01:12:12 10° NW visible
14 Dec 6.7 11:39:13 10° NE 11:42:21 16° E 11:45:27 10° SE visible
14 Dec 4.2 13:16:42 10° N 13:21:34 47° WNW 13:26:25 10° SW visible
15 Dec 4.1 12:41:09 10° NNE 12:46:15 75° ESE 12:51:19 10° S visible
15 Dec 5.7 14:23:09 10° NW 14:24:35 11° WNW 14:26:02 10° W visible
16 Dec 5.7 12:06:14 10° NE 12:10:44 31° E 12:15:14 10° SSE visible
16 Dec 4.9 13:45:30 10° NNW 13:49:35 25° WNW 13:53:41 10° WSW visible
17 Dec 6.9 11:32:40 10° ENE 11:35:05 13° E 11:37:28 10° ESE visible
17 Dec 4.0 13:09:25 10° N 13:14:24 57° WNW 13:19:21 10° SSW visible
18 Dec 4.4 12:33:59 10° NNE 12:39:02 62° ESE 12:44:03 10° S visible
18 Dec 5.6 14:15:05 10° NW 14:17:29 13° WNW 14:19:53 10° W visible
19 Dec 7.2 01:27:31 10° WSW 01:29:37 12° W 01:31:42 10° WNW visible
19 Dec 6.0 11:59:15 10° NE 12:03:30 26° E 12:07:43 10° SSE visible
19 Dec 4.7 13:38:04 10° N 13:42:26 30° WNW 13:46:48 10° SW visible
